Regional Weather Roundup
Issued by NWS

Home | Current Version | Previous Version | Graphics & Text | Print | Product List | Glossary On
Versions: 1 2 3 4 5 6 7 8 9 10 11 12 13 14 15 16 17 18 19 20 21 22 23 24 25 26 27 28 29 30 31 32 33 34 35 36 37 38 39 40 41 42 43 44 45 46 47 48 49 50
000
ASUS45 KSLC 310510
RWRUT

UTAH REGIONAL WEATHER ROUNDUP
NATIONAL WEATHER SERVICE SALT LAKE CITY UT
1100 PM MDT SAT AUG 30 2014

UTZ001>011-023>025-310600-

NORTHERN UTAH

CITY           SKY/WX    TMP DP  RH WIND       PRES   REMARKS
HILL AFB       CLOUDY    70  44  39 E12       29.85F
LOGAN          PTCLDY    65  48  54 SW6       29.87R
OGDEN          CLOUDY    71  45  39 S6        29.83F
PROVO AIRPORT  CLOUDY    70  57  64 CALM      29.87R
SALT LAKE CITY CLOUDY    71  47  42 W3        29.82R
VERNAL         MOCLDY    63  47  55 W6        29.89F
WENDOVER       CLOUDY    79  32  18 N9        29.84R
HEBER CITY     CLOUDY    61  50  67 SE8       29.92R
WEST JORDAN    CLEAR     73  50  43 NW7       29.86R

$$

UTZ012>022-026-027-310600-

SOUTHERN UTAH

CITY           SKY/WX    TMP DP  RH WIND       PRES   REMARKS
BRYCE CANYON   CLEAR     49  38  65 S8        30.17F
CEDAR CITY     PTCLDY    67  31  26 SW7       29.99F
MILFORD        PTCLDY    74  33  22 S16       29.90F
MOAB/CYNLANDS  CLEAR     78  34  20 SW15      29.83F
PRICE          PTCLDY    64  41  42 N6        29.93F
ST GEORGE      CLOUDY    88  36  15 SW9G16    29.81S

$$

REGIONAL REPORTS     COLORADO/ARIZONA

CITY           SKY/WX    TMP DP  RH WIND       PRES   REMARKS
CRAIG, CO      MOCLDY    56  48  74 E3        30.00F
GRAND JUNCTION PTCLDY    72  45  37 E12       29.89F
RIFLE          PTCLDY    61  50  67 E5        29.98F
MONTROSE       CLEAR     66  40  38 SE13      30.03F
CORTEZ         CLEAR     59  44  57 CALM      30.08S
PAGE, AZ       PTCLDY    83  34  17 S8        29.92S
GRAND CANYON     N/A    N/A N/A N/A MISG        N/A
KINGMAN        MOCLDY    83  33  16 S12       29.90R
FLAGSTAFF      MOCLDY    62  40  44 SW6       30.22S

$$

REGIONAL REPORTS    NEVADA/IDAHO/WYOMING

CITY           SKY/WX    TMP DP  RH WIND       PRES   REMARKS
LAS VEGAS, NV  MOCLDY    93  29  10 S9        29.69S
ELY            CLOUDY    68  24  19 N8        30.01S
ELKO           CLOUDY    66  31  27 W3        29.91S
POCATELLO, ID  PTCLDY    65  43  44 W10       29.88F
BURLEY         CLOUDY    60  46  59 S7        29.88S
EVANSTON, WY   CLOUDY    61  42  49 W10       30.03R
ROCK SPRINGS   MOCLDY    57  43  59 S7        29.99F

$$


USA.gov is the U.S. government's official web portal to all federal, state and local government web resources and services.